Mountain Home, AR

8:38 PM CDT on April 21, 2018 (GMT -0500)
Baxter County Regional

Weather History for KBPK - August, 2014

Change the Weather History Date:

Sunday, August 24, 2014

  Actual Average (KFLP) Record (KFLP)
Temperature  
Mean Temperature 85 °F -  
Max Temperature 99 °F 88 °F 98 °F (1998)
Min Temperature 71 °F 65 °F 57 °F (2017)
Cooling Degree Days 20    
Growing Degree Days 35 (Base 50)    
Moisture  
Dew Point 66 °F    
Average Humidity 58    
Maximum Humidity 93    
Minimum Humidity 24    
Precipitation  
Precipitation 0.00 in - - ()
Sea Level Pressure  
Sea Level Pressure 29.92 in    
Wind  
Wind Speed 2 mph (SSW)    
Max Wind Speed 8 mph    
Max Gust Speed -    
Visibility 8 miles    
Events      
Averages and records for this station are not official NWS values.
T = Trace of Precipitation, MM = Missing Value Source: NWS Daily Summary

Daily Weather History Graph

Daily Weather History Graph

Search for Another Location

Airport or City:

Astronomy

Aug. 24, 2014 Rise Set
Actual Time 6:34 AM CDT 7:48 PM CDT
Civil Twilight 6:08 AM CDT 8:15 PM CDT
Nautical Twilight 5:36 AM CDT 8:47 PM CDT
Astronomical Twilight 5:02 AM CDT 9:20 PM CDT
Moon 5:45 AM CDT (8/24) 7:08 PM CDT (8/24)
Length of Visible Light 14h 07m
Length of Day
13h 13m
Waning Crescent, 1% of the Moon is Illuminated
Aug 24
Waning Crescent
Aug 25
New
Sep 2
First Quarter
Sep 8
Full
Sep 15
Last Quarter

Hourly Weather History & Observations

Time (CDT) Temp. Heat Index Dew Point Humidity Pressure Visibility Wind Dir Wind Speed Gust Speed Precip Events Conditions
12:53 AM 77.0 °F - 70.0 °F 79% 29.92 in 9.0 mi Calm Calm - N/A   Clear
1:53 AM 75.9 °F - 70.0 °F 82% 29.92 in 9.0 mi West 3.5 mph - N/A   Clear
2:53 AM 73.9 °F - 69.1 °F 85% 29.91 in 9.0 mi Calm Calm - N/A   Clear
3:53 AM 77.0 °F - 69.1 °F 76% 29.91 in 9.0 mi WSW 3.5 mph - N/A   Clear
4:53 AM 73.0 °F - 69.1 °F 87% 29.90 in 5.0 mi Calm Calm - N/A   Clear
5:53 AM 73.9 °F - 70.0 °F 87% 29.92 in 9.0 mi Calm Calm - N/A   Clear
6:53 AM 71.1 °F - 69.1 °F 93% 29.95 in 6.0 mi Calm Calm - N/A   Clear
7:53 AM 77.0 °F - 72.0 °F 84% 29.96 in 8.0 mi Calm Calm - N/A   Clear
8:53 AM 81.0 °F 84.4 °F 70.0 °F 69% 29.96 in 8.0 mi SW 4.6 mph - N/A   Clear
9:53 AM 84.9 °F 89.4 °F 70.0 °F 61% 29.96 in 8.0 mi Calm Calm - N/A   Clear
10:53 AM 89.1 °F 92.9 °F 68.0 °F 50% 29.97 in 8.0 mi Calm Calm - N/A   Clear
11:53 AM 93.9 °F 95.6 °F 64.0 °F 37% 29.96 in 9.0 mi Calm Calm - N/A   Clear
12:53 PM 95.0 °F 96.0 °F 63.0 °F 34% 29.95 in 9.0 mi North - - N/A   Clear
1:53 PM 98.1 °F 98.6 °F 61.0 °F 29% 29.94 in 9.0 mi South 8.1 mph - N/A   Clear
2:53 PM 99.0 °F 97.7 °F 55.9 °F 24% 29.91 in 8.0 mi South 6.9 mph - N/A   Clear
3:53 PM 99.0 °F 100.5 °F 62.1 °F 30% 29.89 in 9.0 mi Variable 3.5 mph - N/A   Clear
4:53 PM 98.1 °F 99.1 °F 62.1 °F 30% 29.88 in 9.0 mi SE 5.8 mph - N/A   Clear
5:53 PM 97.0 °F 98.3 °F 63.0 °F 32% 29.88 in 9.0 mi SSE 5.8 mph - N/A   Clear
6:53 PM 93.9 °F 95.6 °F 64.0 °F 37% 29.88 in 9.0 mi South 3.5 mph - N/A   Clear
7:53 PM 89.1 °F 90.3 °F 64.0 °F 43% 29.88 in 9.0 mi SW 3.5 mph - N/A   Clear
10:53 PM 81.0 °F 83.0 °F 66.0 °F 60% 29.94 in 10.0 mi Calm Calm - N/A   Clear